Burnsville, North Carolina, United States (28714)
Lat: 35.92N, Lon: 82.3W
Wx Zone: NCZ049
Local Info
Past Weather Observations for Wednesday, July 29, 2015

NOTE: This archive is for the closest National Weather Service station to Burnsville. Information may differ from the station used for current weather conditions.

Click here for Long-term Archive

Time Weather Temperature Dewpoint Humidity Pressure Winds Precip Visibility
23:54
Partly Cloudy
73°F / 23°C 70°F / 21°C 89% 30.09 in
(1019 mb)
Calm - 9SM
22:54
Clear
73°F / 23°C 70°F / 21°C 89% 30.12 in
(1020 mb)
SSW 4.6 mph
(SSW 7 kph)
- 8SM
21:54
Clear
73°F / 23°C 72°F / 22°C 94% 30.09 in
(1019 mb)
SSW 3.5 mph
(SSW 6 kph)
- 9SM
20:54
Clear
75°F / 24°C 72°F / 22°C 89% 30.09 in
(1019 mb)
Calm - 9SM
19:54
Clear
77°F / 25°C 72°F / 22°C 83% 30.06 in
(1018 mb)
N 5.8 mph
(N 9 kph)
- 10SM
18:54
Clear
79°F / 26°C 72°F / 22°C 79% 30.06 in
(1018 mb)
NW 4.6 mph
(NW 7 kph)
- 10SM
17:54
Overcast
79°F / 26°C 72°F / 22°C 79% 30.04 in
(1017 mb)
Variable 4.6 mph
(Variable 7 kph)
0.01 in
(0.25 mm)
10SM
16:54
Partly Cloudy
86°F / 30°C 70°F / 21°C 59% 30.04 in
(1017 mb)
SSE 5.8 mph
(SSE 9 kph)
- 10SM
15:54
Mostly Cloudy
86°F / 30°C 72°F / 22°C 62% 30.04 in
(1017 mb)
SSW 4.6 mph
(SSW 7 kph)
- 10SM
15:13
Partly Cloudy
84°F / 29°C 66°F / 19°C 55% 30.06 in
(1018 mb)
Calm - 10SM
14:54
Clear
Thunder Storms
84°F / 29°C 68°F / 20°C 58% 30.06 in
(1018 mb)
Variable 4.6 mph
(Variable 7 kph)
0.00 in
(0.00 mm)
10SM
13:54
Partly Cloudy
82°F / 28°C 66°F / 19°C 58% 30.06 in
(1018 mb)
NE 6.9 mph
(NE 11 kph)
- 10SM
12:54
Mostly Cloudy
88°F / 31°C 64°F / 18°C 46% 30.06 in
(1018 mb)
Calm - 10SM
11:54
Partly Cloudy
86°F / 30°C 64°F / 18°C 49% 30.09 in
(1019 mb)
Variable 5.8 mph
(Variable 9 kph)
- 10SM
10:54
Partly Cloudy
84°F / 29°C 68°F / 20°C 58% 30.09 in
(1019 mb)
WNW 4.6 mph
(WNW 7 kph)
- 10SM
09:54
Mostly Cloudy
81°F / 27°C 68°F / 20°C 66% 30.12 in
(1020 mb)
N 3.5 mph
(N 6 kph)
- 10SM
08:54
Clear
79°F / 26°C 68°F / 20°C 70% 30.12 in
(1020 mb)
Calm - 10SM
07:54
Clear
72°F / 22°C 66°F / 19°C 83% 30.12 in
(1020 mb)
Calm - 9SM
06:54
Clear
70°F / 21°C 66°F / 19°C 88% 30.09 in
(1019 mb)
Calm - 7SM
05:54
Clear
68°F / 20°C 64°F / 18°C 88% 30.09 in
(1019 mb)
Calm - 7SM
04:54
Clear
68°F / 20°C 66°F / 19°C 94% 30.06 in
(1018 mb)
Calm - 7SM
03:54
Clear
70°F / 21°C 66°F / 19°C 88% 30.06 in
(1018 mb)
NNW 3.5 mph
(NNW 6 kph)
- 8SM
02:54
Clear
70°F / 21°C 66°F / 19°C 88% 30.06 in
(1018 mb)
Calm - 7SM
01:54
Clear
72°F / 22°C 66°F / 19°C 83% 30.06 in
(1018 mb)
Calm - 10SM
00:54
Clear
72°F / 22°C 68°F / 20°C 88% 30.09 in
(1019 mb)
Calm - 7SM
Time Weather Temperature Dewpoint Humidity Pressure Winds Precip Visibility


Weather for websites

WeatherForYou.com, LLC is not responsible for any damages or problems caused by this service. Current weather conditions are obtained from the closest station including government and personal stations which may have varying degrees of accuracy. Weather forecasts are derived from the NOAA NDFD. Like all things, this site belongs to Jesus Christ... He just trusts us to maintain it. If you have any questions or comments email webmaster@weatherforyou.com

Copyright © 2015, WeatherForYou.com LLC. All rights reserved.